• In Austria
  • List of Countries
  • For 7 days
  • Water Temperature
  • Satellite Maps
  • Weather Map
  • News
  • Weather Widgets
  • user-avatar
    Login

    Hourly Weather Kerns

    Today, 22 September, Saturday

    Time Temperature Precipitation Wind Pressure Humidity
    00:00 +23°C° 0.2 mm 6 mps 763 mmHg 87%
    01:00 +23°C° 0.2 mm 6 mps 763 mmHg 86%
    02:00 +22°C° 0.1 mm 6 mps 763 mmHg 87%
    03:00 +22°C° 0.1 mm 6 mps 763 mmHg 88%
    04:00 +21°C° 0 mm 5 mps 762 mmHg 89%
    05:00 +22°C° 0.1 mm 6 mps 763 mmHg 89%
    06:00 +22°C° 0.1 mm 6 mps 763 mmHg 88%
    07:00 +22°C° 0.1 mm 6 mps 763 mmHg 87%
    08:00 +23°C° 0.1 mm 7 mps 763 mmHg 81%
    09:00 +26°C° 0.1 mm 7 mps 764 mmHg 75%
    10:00 +26°C° 0 mm 7 mps 764 mmHg 71%
    11:00 +27°C° 0.1 mm 7 mps 764 mmHg 68%
    12:00 +28°C° 0.1 mm 7 mps 763 mmHg 65%
    13:00 +28°C° 0.1 mm 7 mps 763 mmHg 61%
    14:00 +28°C° 0 mm 7 mps 763 mmHg 59%
    15:00 +28°C° 0 mm 7 mps 763 mmHg 58%
    16:00 +28°C° 0 mm 7 mps 762 mmHg 56%
    17:00 +27°C° 0 mm 7 mps 763 mmHg 64%
    18:00 +24°C° 0 mm 6 mps 763 mmHg 72%
    19:00 +22°C° 0 mm 6 mps 763 mmHg 80%
    20:00 +22°C° 0.1 mm 6 mps 764 mmHg 83%
    21:00 +21°C° 0.1 mm 6 mps 764 mmHg 85%
    22:00 +21°C° 0.1 mm 6 mps 764 mmHg 88%
    23:00 +21°C° 0.2 mm 6 mps 764 mmHg 88%

    Tomorrow, 23 September, Sunday

    Time Temperature Precipitation Wind Pressure Humidity
    00:00 +21°C° 0.2 mm 6 mps 763 mmHg 88%
    01:00 +21°C° 0.2 mm 7 mps 763 mmHg 88%
    02:00 +21°C° 0.1 mm 7 mps 763 mmHg 89%
    03:00 +21°C° 0.1 mm 7 mps 763 mmHg 89%
    04:00 +21°C° 0.1 mm 7 mps 762 mmHg 89%
    05:00 +21°C° 0.1 mm 7 mps 762 mmHg 87%
    06:00 +21°C° 0.1 mm 7 mps 763 mmHg 86%
    07:00 +21°C° 0.1 mm 7 mps 763 mmHg 84%
    08:00 +23°C° 0.1 mm 7 mps 763 mmHg 75%
    09:00 +26°C° 0.1 mm 7 mps 763 mmHg 66%
    10:00 +28°C° 0.1 mm 7 mps 763 mmHg 57%
    11:00 +28°C° 0.1 mm 7 mps 763 mmHg 54%
    12:00 +29°C° 0.1 mm 7 mps 762 mmHg 50%
    13:00 +31°C° 0.1 mm 8 mps 761 mmHg 47%
    14:00 +30°C° 0.1 mm 7 mps 761 mmHg 50%
    15:00 +29°C° 0.1 mm 7 mps 761 mmHg 52%
    16:00 +28°C° 0.1 mm 7 mps 761 mmHg 55%
    17:00 +27°C° 0.1 mm 7 mps 761 mmHg 63%
    18:00 +24°C° 0.1 mm 6 mps 762 mmHg 72%
    19:00 +22°C° 0.1 mm 6 mps 762 mmHg 80%
    20:00 +22°C° 0.2 mm 6 mps 763 mmHg 84%
    21:00 +21°C° 0.2 mm 6 mps 763 mmHg 87%
    22:00 +21°C° 0.2 mm 6 mps 763 mmHg 90%
    23:00 +21°C° 0.2 mm 5 mps 763 mmHg 92%

    Day after tomorrow, 24 September, Monday

    Time Temperature Precipitation Wind Pressure Humidity
    00:00 +20°C° 0.2 mm 5 mps 762 mmHg 93%
    01:00 +20°C° 0.2 mm 5 mps 762 mmHg 94%
    02:00 +20°C° 0.2 mm 5 mps 762 mmHg 94%
    03:00 +20°C° 0.2 mm 5 mps 761 mmHg 95%
    04:00 +20°C° 0.2 mm 5 mps 761 mmHg 95%
    05:00 +20°C° 0.1 mm 5 mps 761 mmHg 93%
    06:00 +21°C° 0.1 mm 5 mps 762 mmHg 91%
    07:00 +21°C° 0.1 mm 5 mps 762 mmHg 89%
    08:00 +23°C° 0.1 mm 6 mps 762 mmHg 78%
    09:00 +26°C° 0.1 mm 6 mps 762 mmHg 66%
    10:00 +28°C° 0.1 mm 7 mps 762 mmHg 55%
    11:00 +29°C° 0 mm 7 mps 762 mmHg 51%
    12:00 +30°C° 0 mm 7 mps 761 mmHg 46%
    13:00 +32°C° 0 mm 7 mps 761 mmHg 42%
    14:00 +30°C° 0 mm 7 mps 760 mmHg 44%
    15:00 +30°C° 0 mm 7 mps 760 mmHg 46%
    16:00 +29°C° 0 mm 7 mps 760 mmHg 47%
    17:00 +27°C° 0 mm 6 mps 760 mmHg 57%
    18:00 +24°C° 0 mm 6 mps 760 mmHg 67%
    19:00 +22°C° 0 mm 6 mps 761 mmHg 77%
    20:00 +21°C° 0.1 mm 6 mps 761 mmHg 82%
    21:00 +21°C° 0.1 mm 6 mps 762 mmHg 87%
    22:00 +20°C° 0.1 mm 5 mps 762 mmHg 91%
    23:00 +20°C° 0.1 mm 6 mps 762 mmHg 92%

    25 September, Tuesday

    Time Temperature Precipitation Wind Pressure Humidity
    00:00 +20°C° 0.1 mm 6 mps 761 mmHg 93%
    01:00 +20°C° 0.1 mm 6 mps 761 mmHg 94%
    02:00 +20°C° 0.1 mm 6 mps 761 mmHg 94%
    03:00 +20°C° 0.1 mm 6 mps 761 mmHg 94%
    04:00 +20°C° 0.1 mm 6 mps 760 mmHg 94%
    05:00 +20°C° 0.1 mm 6 mps 761 mmHg 92%
    06:00 +21°C° 0.1 mm 6 mps 761 mmHg 89%
    07:00 +21°C° 0.1 mm 6 mps 762 mmHg 87%
    08:00 +23°C° 0.1 mm 6 mps 762 mmHg 77%
    09:00 +26°C° 0.1 mm 6 mps 762 mmHg 66%
    10:00 +28°C° 0.1 mm 7 mps 762 mmHg 56%
    11:00 +29°C° 0.1 mm 7 mps 762 mmHg 53%
    12:00 +30°C° 0.1 mm 7 mps 761 mmHg 50%
    13:00 +32°C° 0.1 mm 7 mps 760 mmHg 46%
    14:00 +30°C° 0.1 mm 7 mps 760 mmHg 49%
    15:00 +29°C° 0.1 mm 7 mps 760 mmHg 52%
    16:00 +28°C° 0.1 mm 7 mps 759 mmHg 55%
    17:00 +27°C° 0.1 mm 7 mps 760 mmHg 63%
    18:00 +24°C° 0.1 mm 6 mps 760 mmHg 71%
    19:00 +22°C° 0.1 mm 6 mps 761 mmHg 79%
    20:00 +21°C° 0 mm 6 mps 762 mmHg 82%
    21:00 +21°C° 0 mm 6 mps 762 mmHg 86%
    22:00 +20°C° 0 mm 6 mps 762 mmHg 89%
    23:00 +20°C° 0 mm 6 mps 762 mmHg 90%

    26 September, Wednesday

    Time Temperature Precipitation Wind Pressure Humidity
    00:00 +20°C° 0 mm 6 mps 762 mmHg 91%
    01:00 +20°C° 0 mm 5 mps 761 mmHg 92%
    02:00 +20°C° 0.1 mm 6 mps 761 mmHg 93%
    03:00 +20°C° 0.1 mm 6 mps 761 mmHg 94%
    04:00 +20°C° 0.1 mm 6 mps 760 mmHg 94%
    05:00 +20°C° 0.2 mm 6 mps 761 mmHg 92%
    06:00 +21°C° 0.2 mm 6 mps 761 mmHg 90%
    07:00 +21°C° 0.2 mm 6 mps 762 mmHg 87%
    08:00 +23°C° 0.1 mm 6 mps 762 mmHg 78%
    09:00 +26°C° 0.1 mm 7 mps 762 mmHg 69%
    10:00 +28°C° 0.1 mm 7 mps 762 mmHg 59%
    11:00 +28°C° 0.1 mm 7 mps 762 mmHg 57%
    12:00 +29°C° 0.1 mm 7 mps 761 mmHg 55%
    13:00 +30°C° 0.1 mm 7 mps 761 mmHg 54%
    14:00 +29°C° 0.2 mm 7 mps 760 mmHg 54%
    15:00 +29°C° 0.2 mm 6 mps 760 mmHg 55%
    16:00 +28°C° 0.2 mm 6 mps 760 mmHg 56%
    17:00 +27°C° 0.2 mm 6 mps 761 mmHg 66%
    18:00 +24°C° 0.2 mm 6 mps 761 mmHg 76%
    19:00 +22°C° 0.2 mm 5 mps 762 mmHg 86%
    20:00 +22°C° 0.5 mm 5 mps 762 mmHg 87%
    21:00 +22°C° 0.5 mm 6 mps 762 mmHg 89%
    22:00 +22°C° 0.5 mm 6 mps 763 mmHg 90%
    23:00 +21°C° 0.4 mm 6 mps 762 mmHg 90%

    27 September, Thursday

    Time Temperature Precipitation Wind Pressure Humidity
    00:00 +21°C° 0.4 mm 6 mps 762 mmHg 90%
    01:00 +21°C° 0.4 mm 6 mps 762 mmHg 90%
    02:00 +21°C° 0.1 mm 6 mps 762 mmHg 91%
    03:00 +20°C° 0.1 mm 6 mps 761 mmHg 92%
    04:00 +20°C° 0.1 mm 6 mps 761 mmHg 94%
    05:00 +20°C° 0.1 mm 6 mps 762 mmHg 92%
    06:00 +21°C° 0.1 mm 6 mps 762 mmHg 91%
    07:00 +21°C° 0.1 mm 5 mps 763 mmHg 89%
    08:00 +23°C° 0.1 mm 6 mps 763 mmHg 78%
    09:00 +26°C° 0.1 mm 6 mps 763 mmHg 66%
    10:00 +28°C° 0.1 mm 6 mps 763 mmHg 55%
    11:00 +29°C° 0.1 mm 6 mps 762 mmHg 53%
    12:00 +30°C° 0.1 mm 6 mps 761 mmHg 50%
    13:00 +32°C° 0.1 mm 6 mps 761 mmHg 48%
    14:00 +30°C° 0.1 mm 6 mps 761 mmHg 50%
    15:00 +29°C° 0.1 mm 6 mps 760 mmHg 52%
    16:00 +29°C° 0.1 mm 6 mps 760 mmHg 55%
    17:00 +27°C° 0.1 mm 6 mps 761 mmHg 64%
    18:00 +25°C° 0.1 mm 5 mps 761 mmHg 72%
    19:00 +22°C° 0.1 mm 5 mps 762 mmHg 81%
    20:00 +21°C° 0.1 mm 5 mps 762 mmHg 85%
    21:00 +21°C° 0.1 mm 5 mps 762 mmHg 88%
    22:00 +20°C° 0.1 mm 5 mps 762 mmHg 91%
    23:00 +20°C° 0 mm 5 mps 762 mmHg 92%
    Show more